sat.trackr.live / text

‹ back to catalog

STARLINK-32929

NORAD 63021 · 2025-032S

PAYLOAD ACTIVE UNKNOWN

§ Identity

Operator
Country
US
Launch date
2025-02-15
Launch site
AFETR
Launch vehicle
Mass (kg)
RCS (m²)

Purposes: comms

External: N2YO · Heavens-Above · Gunter

§ Orbital elements

Epoch: 2026-05-25T00:47:01.434336Z

Period
94.27 min
Inclination
43.0012°
Eccentricity
0.0001148
Mean motion
15.27574410 rev/d
Perigee alt
482.3 km
Apogee alt
483.9 km
Semi-major
6,861.2 km
B*
5.7853e-4
RAAN
265.0810°
Arg perigee
284.4969°
Mean anomaly
75.5755°
Rev number
7,229

§ Raw data

STARLINK-329291 63021U 25032S   26145.03265549  .00015689  00000+0  57853-3 0  99952 63021  43.0012 265.0810 0001148 284.4969  75.5755 15.27574410 72292

JSON: /api/v1/satellites/63021 · /tle

For live sub-satellite position, see the globe view (requires WebGL).

§ Visibility from observer

Set your observer location to see the next 7 days of passes ≥ 10°. The values pass through the URL so the page stays shareable.

No JS? Fill the form by hand. The geolocation button needs JavaScript.